Time,TemperatureF,DewpointF,PressureIn,WindDirection,WindDirectionDegrees,WindSpeedMPH,WindSpeedGustMPH,Humidity,HourlyPrecipIn,Conditions,Clouds,dailyrainin,SoftwareType,DateUTC
2013-06-06 00:02:00,49.0,24.0,-100.00,North,356,9.0,10.0,38,0.00,,,-99.99,,2013-06-06 06:02:00,
2013-06-06 00:11:00,49.0,24.0,-100.00,NNW,346,7.0,8.0,38,0.00,,,-99.99,,2013-06-06 06:11:00,
2013-06-06 00:21:00,48.0,23.0,-100.00,NNW,340,5.0,7.0,37,0.00,,,-99.99,,2013-06-06 06:21:00,
2013-06-06 00:32:00,47.0,25.0,-100.00,NW,326,4.0,4.0,41,0.00,,,-99.99,,2013-06-06 06:32:00,
2013-06-06 00:41:00,47.0,24.0,-100.00,NW,318,7.0,7.0,41,0.00,,,-99.99,,2013-06-06 06:41:00,
2013-06-06 00:52:00,47.0,23.0,-100.00,NNW,347,1.0,4.0,39,0.00,,,-99.99,,2013-06-06 06:52:00,
2013-06-06 01:02:00,46.0,24.0,-100.00,NNE,18,0.0,1.0,40,0.00,,,-99.99,,2013-06-06 07:02:00,
2013-06-06 01:11:00,46.0,22.0,-100.00,NNE,28,1.0,3.0,37,0.00,,,-99.99,,2013-06-06 07:11:00,
2013-06-06 01:22:00,45.0,22.0,-100.00,NE,55,1.0,2.0,41,0.00,,,-99.99,,2013-06-06 07:22:00,
2013-06-06 01:32:00,45.0,22.0,-100.00,ENE,78,1.0,2.0,40,0.00,,,-99.99,,2013-06-06 07:32:00,
2013-06-06 01:42:00,45.0,22.0,-100.00,NE,34,0.0,1.0,39,0.00,,,-99.99,,2013-06-06 07:42:00,
2013-06-06 01:52:00,43.0,22.0,-100.00,NNW,335,1.0,2.0,43,0.00,,,-99.99,,2013-06-06 07:52:00,
2013-06-06 02:02:00,42.0,23.0,-100.00,NNE,24,1.0,2.0,47,0.00,,,-99.99,,2013-06-06 08:02:00,
2013-06-06 02:11:00,39.0,25.0,-100.00,NNW,337,1.0,4.0,55,0.00,,,-99.99,,2013-06-06 08:11:00,
2013-06-06 02:21:00,42.0,25.0,-100.00,North,7,0.0,0.0,49,0.00,,,-99.99,,2013-06-06 08:21:00,
2013-06-06 02:32:00,41.0,25.0,-100.00,East,88,1.0,2.0,53,0.00,,,-99.99,,2013-06-06 08:32:00,
2013-06-06 02:42:00,41.0,25.0,-100.00,NNW,346,2.0,3.0,53,0.00,,,-99.99,,2013-06-06 08:42:00,
2013-06-06 02:52:00,39.0,26.0,-100.00,NW,305,3.0,4.0,60,0.00,,,-99.99,,2013-06-06 08:52:00,
2013-06-06 03:01:00,42.0,27.0,-100.00,North,6,1.0,2.0,54,0.00,,,-99.99,,2013-06-06 09:01:00,
2013-06-06 03:11:00,40.0,26.0,-100.00,NW,304,0.0,1.0,56,0.00,,,-99.99,,2013-06-06 09:11:00,
2013-06-06 03:22:00,38.0,27.0,-100.00,NE,48,1.0,2.0,64,0.00,,,-99.99,,2013-06-06 09:22:00,
2013-06-06 03:32:00,40.0,27.0,-100.00,NW,319,2.0,3.0,58,0.00,,,-99.99,,2013-06-06 09:32:00,
2013-06-06 03:42:00,40.0,26.0,-100.00,WNW,294,3.0,4.0,58,0.00,,,-99.99,,2013-06-06 09:42:00,
2013-06-06 03:53:00,41.0,26.0,-100.00,WNW,288,3.0,4.0,56,0.00,,,-99.99,,2013-06-06 09:53:00,
2013-06-06 04:02:00,39.0,27.0,-100.00,NW,322,0.0,2.0,62,0.00,,,-99.99,,2013-06-06 10:02:00,
2013-06-06 04:12:00,41.0,26.0,-100.00,West,272,5.0,7.0,55,0.00,,,-99.99,,2013-06-06 10:12:00,
2013-06-06 04:22:00,37.0,26.0,-100.00,West,270,0.0,1.0,66,0.00,,,-99.99,,2013-06-06 10:22:00,
2013-06-06 04:33:00,39.0,26.0,-100.00,NW,322,2.0,6.0,59,0.00,,,-99.99,,2013-06-06 10:33:00,
2013-06-06 04:41:00,43.0,26.0,-100.00,West,280,5.0,7.0,51,0.00,,,-99.99,,2013-06-06 10:41:00,
2013-06-06 04:52:00,44.0,26.0,-100.00,West,263,5.0,6.0,48,0.00,,,-99.99,,2013-06-06 10:52:00,
2013-06-06 05:02:00,43.0,25.0,-100.00,West,261,3.0,5.0,49,0.00,,,-99.99,,2013-06-06 11:02:00,
2013-06-06 05:11:00,41.0,25.0,-100.00,WNW,289,2.0,4.0,51,0.00,,,-99.99,,2013-06-06 11:11:00,
2013-06-06 05:22:00,42.0,25.0,-100.00,WNW,284,5.0,7.0,52,0.00,,,-99.99,,2013-06-06 11:22:00,
2013-06-06 05:32:00,40.0,25.0,-100.00,WNW,294,4.0,5.0,55,0.00,,,-99.99,,2013-06-06 11:32:00,
2013-06-06 05:42:00,38.0,25.0,-100.00,WNW,294,2.0,3.0,59,0.00,,,-99.99,,2013-06-06 11:42:00,
2013-06-06 05:52:00,40.0,25.0,-100.00,WNW,295,2.0,3.0,55,0.00,,,-99.99,,2013-06-06 11:52:00,
2013-06-06 06:02:00,37.0,26.0,-100.00,WNW,299,0.0,0.0,63,0.00,,,-99.99,,2013-06-06 12:02:00,
2013-06-06 06:11:00,38.0,25.0,-100.00,West,277,5.0,6.0,58,0.00,,,-99.99,,2013-06-06 12:11:00,
2013-06-06 06:21:00,40.0,25.0,-100.00,WNW,296,3.0,4.0,55,0.00,,,-99.99,,2013-06-06 12:21:00,
2013-06-06 06:32:00,41.0,25.0,-100.00,WNW,289,1.0,3.0,52,0.00,,,-99.99,,2013-06-06 12:32:00,
2013-06-06 06:42:00,42.0,25.0,-100.00,NW,305,1.0,2.0,52,0.00,,,-99.99,,2013-06-06 12:42:00,
2013-06-06 06:52:00,46.0,26.0,-100.00,WNW,302,3.0,4.0,46,0.00,,,-99.99,,2013-06-06 12:52:00,
2013-06-06 07:02:00,45.0,28.0,-100.00,NNW,335,2.0,4.0,51,0.00,,,-99.99,,2013-06-06 13:02:00,
2013-06-06 07:22:00,51.0,29.0,-100.00,NE,54,2.0,2.0,42,0.00,,,-99.99,,2013-06-06 13:22:00,
2013-06-06 07:32:00,51.0,27.0,-100.00,ENE,72,1.0,2.0,38,0.00,,,-99.99,,2013-06-06 13:32:00,
2013-06-06 07:42:00,53.0,26.0,-100.00,NE,38,1.0,2.0,35,0.00,,,-99.99,,2013-06-06 13:42:00,
2013-06-06 07:52:00,55.0,25.0,-100.00,West,271,0.0,1.0,31,0.00,,,-99.99,,2013-06-06 13:52:00,
2013-06-06 08:02:00,55.0,24.0,-100.00,SSE,154,1.0,2.0,30,0.00,,,-99.99,,2013-06-06 14:02:00,
2013-06-06 08:11:00,56.0,25.0,-100.00,SE,137,2.0,4.0,31,0.00,,,-99.99,,2013-06-06 14:11:00,
2013-06-06 08:22:00,55.0,25.0,-100.00,SSE,147,5.0,6.0,30,0.00,,,-99.99,,2013-06-06 14:22:00,
2013-06-06 08:32:00,55.0,23.0,-100.00,SE,137,4.0,6.0,29,0.00,,,-99.99,,2013-06-06 14:32:00,
2013-06-06 08:42:00,56.0,24.0,-100.00,SSE,165,2.0,4.0,29,0.00,,,-99.99,,2013-06-06 14:42:00,
2013-06-06 08:52:00,56.0,24.0,-100.00,South,172,2.0,3.0,29,0.00,,,-99.99,,2013-06-06 14:52:00,
2013-06-06 09:02:00,57.0,25.0,-100.00,East,100,5.0,6.0,28,0.00,,,-99.99,,2013-06-06 15:02:00,
2013-06-06 09:12:00,57.0,25.0,-100.00,ESE,113,4.0,6.0,29,0.00,,,-99.99,,2013-06-06 15:12:00,
2013-06-06 09:22:00,58.0,25.0,-100.00,SSE,167,6.0,7.0,28,0.00,,,-99.99,,2013-06-06 15:22:00,
2013-06-06 09:32:00,57.0,25.0,-100.00,SE,131,5.0,8.0,28,0.00,,,-99.99,,2013-06-06 15:32:00,
2013-06-06 09:42:00,57.0,25.0,-100.00,SE,131,4.0,6.0,29,0.00,,,-99.99,,2013-06-06 15:42:00,
2013-06-06 09:52:00,56.0,25.0,-100.00,SE,134,4.0,6.0,29,0.00,,,-99.99,,2013-06-06 15:52:00,
2013-06-06 10:02:00,56.0,25.0,-100.00,SSW,195,4.0,5.0,30,0.00,,,-99.99,,2013-06-06 16:02:00,
2013-06-06 10:12:00,57.0,26.0,-100.00,SE,136,6.0,7.0,30,0.00,,,-99.99,,2013-06-06 16:12:00,
2013-06-06 10:22:00,58.0,25.0,-100.00,ESE,120,7.0,10.0,27,0.00,,,-99.99,,2013-06-06 16:22:00,
2013-06-06 10:33:00,60.0,25.0,-100.00,SSW,195,5.0,9.0,26,0.00,,,-99.99,,2013-06-06 16:33:00,
2013-06-06 10:42:00,60.0,26.0,-100.00,SE,131,6.0,10.0,26,0.00,,,-99.99,,2013-06-06 16:42:00,
2013-06-06 10:52:00,60.0,26.0,-100.00,SE,131,6.0,11.0,27,0.00,,,-99.99,,2013-06-06 16:52:00,
2013-06-06 11:02:00,59.0,27.0,-100.00,ESE,114,7.0,9.0,29,0.00,,,-99.99,,2013-06-06 17:02:00,
2013-06-06 11:12:00,60.0,26.0,-100.00,East,99,7.0,11.0,27,0.00,,,-99.99,,2013-06-06 17:12:00,
2013-06-06 11:22:00,59.0,29.0,-100.00,NNE,32,16.0,19.0,31,0.00,,,-99.99,,2013-06-06 17:22:00,
2013-06-06 11:32:00,58.0,28.0,-100.00,NNE,27,11.0,14.0,31,0.00,,,-99.99,,2013-06-06 17:32:00,
2013-06-06 11:42:00,59.0,30.0,-100.00,ENE,58,12.0,16.0,32,0.00,,,-99.99,,2013-06-06 17:42:00,
2013-06-06 11:52:00,59.0,30.0,-100.00,NE,34,11.0,17.0,33,0.00,,,-99.99,,2013-06-06 17:52:00,
2013-06-06 12:02:00,59.0,29.0,-100.00,NE,34,13.0,17.0,32,0.00,,,-99.99,,2013-06-06 18:02:00,
2013-06-06 12:12:00,60.0,30.0,-100.00,NNE,30,12.0,16.0,32,0.00,,,-99.99,,2013-06-06 18:12:00,
2013-06-06 12:22:00,61.0,30.0,-100.00,North,359,12.0,15.0,31,0.00,,,-99.99,,2013-06-06 18:22:00,
2013-06-06 12:33:00,60.0,30.0,-100.00,North,354,9.0,12.0,32,0.00,,,-99.99,,2013-06-06 18:33:00,
2013-06-06 12:42:00,60.0,29.0,-100.00,NNW,340,7.0,9.0,30,0.00,,,-99.99,,2013-06-06 18:42:00,
2013-06-06 12:52:00,61.0,29.0,-100.00,North,356,7.0,9.0,30,0.00,,,-99.99,,2013-06-06 18:52:00,
2013-06-06 13:02:00,61.0,29.0,-100.00,NNW,333,2.0,4.0,29,0.00,,,-99.99,,2013-06-06 19:02:00,
2013-06-06 13:11:00,62.0,29.0,-100.00,ENE,65,6.0,7.0,28,0.00,,,-99.99,,2013-06-06 19:11:00,
2013-06-06 13:23:00,63.0,29.0,-100.00,East,89,6.0,12.0,28,0.00,,,-99.99,,2013-06-06 19:23:00,
2013-06-06 13:32:00,61.0,29.0,-100.00,ENE,71,6.0,10.0,30,0.00,,,-99.99,,2013-06-06 19:32:00,
2013-06-06 13:42:00,62.0,29.0,-100.00,East,88,6.0,12.0,29,0.00,,,-99.99,,2013-06-06 19:42:00,
2013-06-06 13:52:00,61.0,29.0,-100.00,East,79,9.0,12.0,29,0.00,,,-99.99,,2013-06-06 19:52:00,
2013-06-06 14:02:00,62.0,29.0,-100.00,NE,51,4.0,6.0,29,0.00,,,-99.99,,2013-06-06 20:02:00,
2013-06-06 14:11:00,63.0,28.0,-100.00,South,189,2.0,6.0,27,0.00,,,-99.99,,2013-06-06 20:11:00,
2013-06-06 14:22:00,64.0,27.0,-100.00,ENE,58,0.0,2.0,24,0.00,,,-99.99,,2013-06-06 20:22:00,
2013-06-06 14:32:00,63.0,27.0,-100.00,North,354,2.0,4.0,25,0.00,,,-99.99,,2013-06-06 20:32:00,
2013-06-06 14:42:00,63.0,28.0,-100.00,NNW,328,4.0,6.0,26,0.00,,,-99.99,,2013-06-06 20:42:00,
2013-06-06 14:52:00,63.0,27.0,-100.00,ENE,73,5.0,7.0,25,0.00,,,-99.99,,2013-06-06 20:52:00,
2013-06-06 15:02:00,63.0,29.0,-100.00,NW,316,3.0,6.0,27,0.00,,,-99.99,,2013-06-06 21:02:00,
2013-06-06 15:11:00,64.0,29.0,-100.00,North,352,6.0,7.0,27,0.00,,,-99.99,,2013-06-06 21:11:00,
2013-06-06 15:22:00,66.0,30.0,-100.00,SW,233,7.0,10.0,26,0.00,,,-99.99,,2013-06-06 21:22:00,
2013-06-06 15:33:00,64.0,27.0,-100.00,SE,143,7.0,11.0,25,0.00,,,-99.99,,2013-06-06 21:33:00,
2013-06-06 15:43:00,65.0,27.0,-100.00,South,174,9.0,11.0,23,0.00,,,-99.99,,2013-06-06 21:43:00,
2013-06-06 15:53:00,65.0,28.0,-100.00,SE,138,7.0,12.0,24,0.00,,,-99.99,,2013-06-06 21:53:00,
2013-06-06 16:02:00,64.0,27.0,-100.00,SE,140,12.0,15.0,24,0.00,,,-99.99,,2013-06-06 22:02:00,
2013-06-06 16:12:00,64.0,26.0,-100.00,SE,145,14.0,18.0,23,0.00,,,-99.99,,2013-06-06 22:12:00,
2013-06-06 16:22:00,64.0,27.0,-100.00,SE,141,7.0,9.0,24,0.00,,,-99.99,,2013-06-06 22:22:00,
2013-06-06 16:33:00,64.0,25.0,-100.00,South,169,12.0,14.0,22,0.00,,,-99.99,,2013-06-06 22:33:00,
2013-06-06 16:43:00,64.0,26.0,-100.00,South,189,7.0,10.0,23,0.00,,,-99.99,,2013-06-06 22:43:00,
2013-06-06 16:52:00,65.0,26.0,-100.00,SSW,202,6.0,9.0,23,0.00,,,-99.99,,2013-06-06 22:52:00,
2013-06-06 17:02:00,64.0,26.0,-100.00,South,171,7.0,10.0,23,0.00,,,-99.99,,2013-06-06 23:02:00,
2013-06-06 17:11:00,65.0,26.0,-100.00,WSW,239,2.0,6.0,23,0.00,,,-99.99,,2013-06-06 23:11:00,
2013-06-06 17:22:00,65.0,26.0,-100.00,South,171,4.0,7.0,23,0.00,,,-99.99,,2013-06-06 23:22:00,
2013-06-06 17:33:00,64.0,27.0,-100.00,South,188,13.0,17.0,24,0.00,,,-99.99,,2013-06-06 23:33:00,
2013-06-06 17:42:00,64.0,27.0,-100.00,SSW,208,9.0,12.0,25,0.00,,,-99.99,,2013-06-06 23:42:00,
2013-06-06 17:52:00,64.0,27.0,-100.00,SW,220,4.0,6.0,24,0.00,,,-99.99,,2013-06-06 23:52:00,
2013-06-06 18:02:00,61.0,31.0,-100.00,NNW,328,15.0,17.0,32,0.00,,,-99.99,,2013-06-07 00:02:00,
2013-06-06 18:11:00,61.0,31.0,-100.00,North,6,12.0,14.0,33,0.00,,,-99.99,,2013-06-07 00:11:00,
2013-06-06 18:21:00,61.0,32.0,-100.00,North,0,15.0,17.0,33,0.00,,,-99.99,,2013-06-07 00:21:00,
2013-06-06 18:32:00,60.0,34.0,-100.00,North,4,13.0,16.0,38,0.00,,,-99.99,,2013-06-07 00:32:00,
2013-06-06 18:42:00,60.0,31.0,-100.00,NW,326,15.0,19.0,34,0.01,,,-99.99,,2013-06-07 00:42:00,
2013-06-06 18:52:00,60.0,33.0,-100.00,NW,319,12.0,14.0,36,0.00,,,-99.99,,2013-06-07 00:52:00,
2013-06-06 19:02:00,60.0,31.0,-100.00,WNW,285,8.0,11.0,33,0.00,,,-99.99,,2013-06-07 01:02:00,
2013-06-06 19:11:00,59.0,30.0,-100.00,WSW,258,11.0,13.0,33,0.00,,,-99.99,,2013-06-07 01:11:00,
2013-06-06 19:21:00,59.0,32.0,-100.00,ESE,102,0.0,1.0,35,0.00,,,-99.99,,2013-06-07 01:21:00,
2013-06-06 19:32:00,58.0,35.0,-100.00,NW,305,11.0,16.0,42,0.00,,,-99.99,,2013-06-07 01:32:00,
2013-06-06 19:42:00,57.0,37.0,-100.00,WNW,299,13.0,21.0,48,0.00,,,-99.99,,2013-06-07 01:42:00,
2013-06-06 19:52:00,57.0,32.0,-100.00,NNW,332,9.0,17.0,39,0.00,,,-99.99,,2013-06-07 01:52:00,
2013-06-06 20:02:00,59.0,33.0,-100.00,NNE,21,7.0,9.0,38,0.00,,,-99.99,,2013-06-07 02:02:00,
2013-06-06 20:11:00,58.0,35.0,-100.00,East,83,5.0,6.0,42,0.00,,,-99.99,,2013-06-07 02:11:00,
2013-06-06 20:21:00,58.0,34.0,-100.00,NE,45,2.0,3.0,40,0.00,,,-99.99,,2013-06-07 02:21:00,
2013-06-06 20:32:00,57.0,35.0,-100.00,NW,319,2.0,3.0,44,0.00,,,-99.99,,2013-06-07 02:32:00,
2013-06-06 20:42:00,57.0,35.0,-100.00,WNW,285,0.0,2.0,44,0.00,,,-99.99,,2013-06-07 02:42:00,
2013-06-06 20:52:00,56.0,35.0,-100.00,NNE,25,6.0,7.0,45,0.00,,,-99.99,,2013-06-07 02:52:00,
2013-06-06 21:02:00,56.0,36.0,-100.00,North,1,4.0,6.0,48,0.00,,,-99.99,,2013-06-07 03:02:00,
2013-06-06 21:11:00,55.0,36.0,-100.00,NNE,16,6.0,7.0,49,0.00,,,-99.99,,2013-06-07 03:11:00,
2013-06-06 21:21:00,55.0,36.0,-100.00,North,357,7.0,7.0,50,0.00,,,-99.99,,2013-06-07 03:21:00,
2013-06-06 21:32:00,55.0,36.0,-100.00,North,7,7.0,9.0,48,0.00,,,-99.99,,2013-06-07 03:32:00,
2013-06-06 21:43:00,55.0,35.0,-100.00,NNE,17,7.0,9.0,47,0.00,,,-99.99,,2013-06-07 03:43:00,
2013-06-06 21:52:00,55.0,36.0,-100.00,North,11,9.0,10.0,50,0.00,,,-99.99,,2013-06-07 03:52:00,
2013-06-06 22:03:00,54.0,36.0,-100.00,NNE,23,9.0,11.0,50,0.00,,,-99.99,,2013-06-07 04:03:00,
2013-06-06 22:12:00,54.0,36.0,-100.00,North,360,11.0,12.0,49,0.00,,,-99.99,,2013-06-07 04:12:00,
2013-06-06 22:22:00,55.0,36.0,-100.00,NNE,13,11.0,12.0,49,0.00,,,-99.99,,2013-06-07 04:22:00,
2013-06-06 22:33:00,54.0,36.0,-100.00,NNE,27,12.0,14.0,51,0.00,,,-99.99,,2013-06-07 04:33:00,
2013-06-06 22:42:00,53.0,36.0,-100.00,NNE,24,12.0,13.0,51,0.00,,,-99.99,,2013-06-07 04:42:00,
2013-06-06 22:53:00,53.0,37.0,-100.00,North,10,11.0,12.0,54,0.00,,,-99.99,,2013-06-07 04:53:00,
2013-06-06 23:11:00,53.0,37.0,-100.00,North,8,9.0,12.0,55,0.00,,,-99.99,,2013-06-07 05:11:00,
2013-06-06 23:22:00,53.0,37.0,-100.00,NNW,344,11.0,14.0,55,0.00,,,-99.99,,2013-06-07 05:22:00,
2013-06-06 23:32:00,53.0,36.0,-100.00,North,357,14.0,17.0,53,0.00,,,-99.99,,2013-06-07 05:32:00,
2013-06-06 23:42:00,53.0,36.0,-100.00,North,4,11.0,14.0,53,0.00,,,-99.99,,2013-06-07 05:42:00,
2013-06-06 23:52:00,53.0,36.0,-100.00,North,0,14.0,17.0,53,0.00,,,-99.99,,2013-06-07 05:52:00,